Regional Weather Roundup
Issued by NWS Sterling, VA

Home | Current Version | Previous Version | Text Only | Print | Product List | Glossary Off
Versions: 1 2 3 4 5 6 7 8 9 10 11 12 13 14 15 16 17 18 19 20 21 22 23 24 25 26 27 28 29 30 31 32 33 34 35 36 37 38 39 40 41 42 43 44 45 46 47 48 49 50

000
ASUS41 KLWX 250910
RWRLWX

REGIONAL WEATHER ROUNDUP
NATIONAL WEATHER SERVICE BALTIMORE MD/WASHINGTON DC
500 AM EDT WED MAY 25 2016

Note: "FAIR" indicates few or no clouds below 12,000 feet
with no significant weather and/or obstructions to visibility.
 TC=TEMPERATURE CELSIUS

 * =Non NWS site. Station does not report precipitation (e.g. rain,
    snow, etc.), thunder, or fog.

DCZ001-MDZ009-015-VAZ040>042-051-053>054-251000-
WASHINGTON METRO

CITY           SKY/WX    TMP DP  RH WIND       PRES   REMARKS
WASHINGTON NAT FAIR      61  57  87 CALM      30.10S
DULLES         FAIR      53  51  93 CALM      30.11R
ANDREWS AFB    CLEAR     64  52  65 W6        30.09R
FT BELVOIR     FAIR      53  51  95 CALM      30.10R
QUANTICO       FAIR      59  54  83 W6        30.11R
COLLEGE PARK*  FAIR      55  52  88 CALM      30.09R
LEESBURG*      FAIR      59  54  82 W5        30.12R
MANASSAS*      FAIR      54  54 100 CALM      30.11S

$$

MDZ006>007-011-014-251000-
BALTIMORE METRO

CITY           SKY/WX    TMP DP  RH WIND       PRES   REMARKS
BWI AIRPORT    PTCLDY    61  49  64 W3        30.08R
MD SCIENCE CTR   N/A     69  48  47 MISG      30.07R
MARTIN STATE   CLEAR     63  52  67 W5        30.08R
ANNAPOLIS      CLEAR     64  51  62 W5        30.08R
FORT MEADE*    CLEAR     52  50  93 CALM      30.11R

$$

MDZ012-015-019>023-251000-
MARYLAND EASTERN SHORE

CITY           SKY/WX    TMP DP  RH WIND       PRES   REMARKS
OCEAN CITY     CLEAR     65  56  72 W8        30.08R
SALISBURY      CLEAR     57  55  93 CALM      30.08S
BAY BRIDGE AP* CLEAR     63  54  72 CALM      30.08R
CAMBRIDGE*       N/A     54  54 100 CALM      30.08S
EASTON*        CLEAR     61  59  94 CALM      30.11S

$$

MDZ017>025-251000-
SOUTHERN MARYLAND

CITY           SKY/WX    TMP DP  RH WIND       PRES   REMARKS
PATUXENT RIVER CLEAR     60  54  80 SW6       30.09R
ST INIGOES     CLEAR     57  56  96 CALM      30.10R
LEONARDTOWN*   CLEAR     59  54  82 CALM      30.11S

$$

MDZ003>005-251000-
NORTH CENTRAL MARYLAND

CITY           SKY/WX    TMP DP  RH WIND       PRES   REMARKS
FREDERICK*     CLEAR     54  54 100 CALM      30.13R
HAGERSTOWN APT CLEAR     59  49  69 CALM      30.12R
WESTMINSTER*   CLEAR     57  55  94 S3        30.11R

$$

MDZ501>502-251000-
WESTERN MARYLAND

CITY           SKY/WX    TMP DP  RH WIND       PRES   REMARKS
OAKLAND*       NOT AVBL
CUMBERLAND*    CLEAR     52  52 100 CALM      30.18R

$$

VAZ025>031-251000-
SHENANDOAH VALLEY

CITY           SKY/WX    TMP DP  RH WIND       PRES   REMARKS
WINCHESTER*    FAIR      61  50  67 W5        30.12S
FRONT ROYAL*   FAIR      55  52  88 S7        30.12S
LURAY*         FAIR      50  50 100 CALM      30.16R
NEW MARKET*    FAIR      51  50  95 CALM      30.16R
STAUNTON*      FAIR      48  47  97 CALM      30.20R
WAYNESBORO*    FAIR      50  48  92 SW3       30.18S

$$

WVZ021-048>050-054>055-251000-
EASTERN WEST VIRGINIA PANHANDLE

CITY           SKY/WX    TMP DP  RH WIND       PRES   REMARKS
MARTINSBURG    FAIR      53  50  89 CALM      30.11R
PETERSBURG*    FAIR      50  49  99 CALM      30.18R FOG

$$

VAZ036>039-050-251000-
CENTRAL FOOTHILLS

CITY           SKY/WX    TMP DP  RH WIND       PRES   REMARKS
CHARLOTTESVILL FAIR      58  51  78 VRB3      30.14R
CULPEPER*      FAIR      53  53  99 CALM      30.13S
ORANGE*        FAIR      59  52  77 CALM      30.14S
GORDONSVILLE*  FAIR      54  53  97 SW8       30.13R
WARRENTON*     FAIR      54  50  86 CALM      30.11S

$$

VAZ055>057-251000-
NORTH AND CENTRAL PIEDMONT

CITY           SKY/WX    TMP DP  RH WIND       PRES   REMARKS
FREDERICKSBRG* FAIR      55  55 100 CALM      30.10S
STAFFORD*      FAIR      54  52  92 NW3       30.15S

$$

NCZ024-NYZ072-PAZ021-071-VAZ022-071-251000-
OTHER REGIONAL OBSERVATIONS

CITY           SKY/WX    TMP DP  RH WIND       PRES   REMARKS
NEW YORK CITY  CLEAR     61  51  70 W3        30.05R
PHILADELPHIA   PTCLDY    59  52  77 CALM      30.06S
PITTSBURGH     CLEAR     61  48  62 CALM      30.12R
ROANOKE        FAIR      55  51  86 CALM      30.20S
RICHMOND       FAIR      62  55  77 W6        30.12R
RALEIGH        MOCLDY    63  55  75 SW3       30.18R

$$

ANZ530>537-251000-
MARINE OBSERVATIONS

STATION/POSITION TIME  TEMP    WIND        PRES
                       AIR SEA DIR/SP/G
                 (UTC) (F)     (DEG/KT/KT) (MB)
THOMAS PT LIGHT  0900   68 62  290/ 13/ 15 1019.8R
BALT KEY BRIDGE  0800   67     250/  6/  7 1017.9R
COVE POINT       0800   70     290/ 10/ 11 1019.0R
LEWISETTA        0800   67 66  290/  4/  5 1018.7R
SOLOMONS ISLAND  0800   62 63  330/  3/  3   N/A
PINEY POINT      0800          320/  3/  4   N/A

$$




USA.gov is the U.S. government's official web portal to all federal, state and local government web resources and services.